Time,TemperatureF,DewpointF,PressureIn,WindDirection,WindDirectionDegrees,WindSpeedMPH,WindSpeedGustMPH,Humidity,HourlyPrecipIn,Conditions,Clouds,dailyrainin,SoftwareType,DateUTC
2013-02-11 21:00:00,34.8,34.5,29.59,West,270,0.0,4.0,99,0.00,,,0.46,VWS V14.00,2013-02-12 02:00:00,
2013-02-11 21:54:00,34.8,34.5,29.59,West,270,0.0,4.0,99,0.00,,,0.46,VWS V14.00,2013-02-12 02:54:00,
2013-02-11 21:59:00,33.9,33.7,29.56,West,273,0.0,0.0,99,0.00,,,0.46,VWS V14.00,2013-02-12 02:59:00,
2013-02-11 22:04:00,33.8,33.8,29.58,WSW,250,2.0,3.0,100,0.00,,,0.46,VWS V14.00,2013-02-12 03:04:00,
2013-02-11 22:09:00,33.7,33.5,29.58,WSW,237,0.0,3.0,99,0.00,,,0.46,VWS V14.00,2013-02-12 03:09:00,
2013-02-11 22:14:00,33.7,33.5,29.57,WSW,238,0.0,3.0,99,0.00,,,0.46,VWS V14.00,2013-02-12 03:14:00,
2013-02-11 22:19:00,33.7,33.5,29.57,WSW,238,0.0,3.0,99,0.00,,,0.46,VWS V14.00,2013-02-12 03:19:00,
2013-02-11 22:24:00,33.6,33.3,29.57,WSW,239,1.0,4.0,99,0.00,,,0.46,VWS V14.00,2013-02-12 03:24:00,
2013-02-11 22:29:00,33.5,33.2,29.58,WNW,283,0.0,4.0,99,0.00,,,0.46,VWS V14.00,2013-02-12 03:29:00,
2013-02-11 22:34:00,33.4,33.2,29.57,SW,228,0.0,4.0,99,0.00,,,0.46,VWS V14.00,2013-02-12 03:34:00,
2013-02-11 22:39:00,33.4,33.2,29.57,West,273,0.0,4.0,99,0.00,,,0.46,VWS V14.00,2013-02-12 03:39:00,
2013-02-11 22:44:00,33.3,33.0,29.57,WSW,251,0.0,4.0,99,0.00,,,0.46,VWS V14.00,2013-02-12 03:44:00,
2013-02-11 22:49:00,33.2,33.0,29.56,WSW,251,0.0,4.0,99,0.00,,,0.46,VWS V14.00,2013-02-12 03:49:00,
2013-02-11 22:54:00,33.2,33.0,29.56,WSW,254,0.0,4.0,99,0.00,,,0.46,VWS V14.00,2013-02-12 03:54:00,
2013-02-11 22:59:00,33.1,32.8,29.56,WNW,298,0.0,2.0,99,0.00,,,0.46,VWS V14.00,2013-02-12 03:59:00,
2013-02-11 23:04:00,33.0,32.8,29.56,West,267,1.0,4.0,99,0.00,,,0.46,VWS V14.00,2013-02-12 04:04:00,
2013-02-11 23:09:00,33.0,32.8,29.56,SSW,207,0.0,4.0,99,0.00,,,0.46,VWS V14.00,2013-02-12 04:09:00,
2013-02-11 23:14:00,33.0,32.8,29.56,SSW,207,0.0,4.0,99,0.00,,,0.46,VWS V14.00,2013-02-12 04:14:00,
2013-02-11 23:19:00,32.9,32.7,29.55,SW,223,0.0,4.0,99,0.00,,,0.46,VWS V14.00,2013-02-12 04:19:00,
2013-02-11 23:24:00,32.9,32.7,29.55,SW,223,0.0,4.0,99,0.00,,,0.46,VWS V14.00,2013-02-12 04:24:00,
2013-02-11 23:29:00,32.9,32.7,29.54,ENE,65,1.0,3.0,99,0.00,,,0.46,VWS V14.00,2013-02-12 04:29:00,
2013-02-11 23:34:00,32.9,32.7,29.54,ENE,65,0.0,3.0,99,0.00,,,0.46,VWS V14.00,2013-02-12 04:34:00,
2013-02-11 23:39:00,32.9,32.7,29.54,North,350,0.0,3.0,99,0.00,,,0.46,VWS V14.00,2013-02-12 04:39:00,
2013-02-11 23:44:00,32.9,32.7,29.53,North,350,0.0,3.0,99,0.00,,,0.46,VWS V14.00,2013-02-12 04:44:00,
2013-02-11 23:49:00,32.9,32.7,29.54,North,350,0.0,3.0,99,0.00,,,0.46,VWS V14.00,2013-02-12 04:49:00,
2013-02-11 23:54:00,32.8,32.5,29.54,North,350,0.0,3.0,99,0.00,,,0.46,VWS V14.00,2013-02-12 04:54:00,
2013-02-11 23:59:00,32.8,32.5,29.54,North,350,0.0,0.0,99,0.00,,,0.00,VWS V14.00,2013-02-12 04:59:00,